Location: Waning Moon II Observatory
(30.3730°N, 89.7620°W)
Time: 12:03:45
(UTC-05:00)

Cosmos 1825 Rocket - Visible Passes

Search period start: 30 August 2016 00:00
Search period end: 09 September 2016 00:00
Orbit: 605 x 630 km, 82.5° (Epoch: 30 August)

Date Brightness Start Highest point End Pass type
(mag) Time Alt. Az. Time Alt. Az. Time Alt. Az.
30 Aug 4.6 20:40:46 10° NNE 20:44:13 27° ENE 20:44:13 27° ENE visible
30 Aug 6.2 22:19:15 10° NW 22:21:21 16° WNW 22:21:21 16° WNW visible
31 Aug 3.6 20:57:16 10° N 21:01:32 56° E 21:01:32 56° E visible
01 Sep 3.7 21:14:10 10° NNW 21:18:32 69° W 21:18:57 64° SW visible
02 Sep 5.3 19:55:08 10° NE 19:57:31 14° ENE 19:59:15 12° ESE visible
02 Sep 5.1 21:31:30 10° NNW 21:35:24 32° W 21:36:25 29° WSW visible
03 Sep 4.5 20:10:53 10° NNE 20:14:39 28° E 20:16:49 19° ESE visible
03 Sep 6.2 21:49:27 10° NW 21:52:11 16° W 21:53:59 13° WSW visible
04 Sep 3.5 20:27:23 10° N 20:31:42 57° E 20:34:29 21° SSE visible
05 Sep 3.8 20:44:19 10° NNW 20:48:39 67° W 20:52:18 14° S visible
06 Sep 5.3 21:01:39 10° NNW 21:05:31 32° W 21:09:22 10° SSW visible
07 Sep 4.4 19:41:01 10° NNE 19:44:47 28° E 19:48:32 10° SE visible
07 Sep 6.4 21:19:39 10° NW 21:22:18 16° W 21:24:57 10° SW visible
08 Sep 3.5 19:57:31 10° N 20:01:50 58° E 20:06:05 10° SSE visible
